TimeEST,TemperatureF,Dew PointF,Humidity,Sea Level PressureIn,VisibilityMPH,Wind Direction,Wind SpeedMPH,Gust SpeedMPH,PrecipitationIn,Events,Conditions,WindDirDegrees,DateUTC
12:15 AM,39.2,39.2,100,30.15,10.0,NW,4.6,-,N/A,,Overcast,320,2013-01-15 05:15:00
12:35 AM,39.2,39.2,100,30.13,10.0,Calm,Calm,-,N/A,,Overcast,0,2013-01-15 05:35:00
12:55 AM,39.2,39.2,100,30.12,10.0,Calm,Calm,-,N/A,,Drizzle,0,2013-01-15 05:55:00
1:15 AM,39.2,39.2,100,30.13,7.0,West,3.5,-,N/A,Rain,Light Rain,280,2013-01-15 06:15:00
1:35 AM,39.2,39.2,100,30.12,10.0,Calm,Calm,-,N/A,Rain,Light Rain,0,2013-01-15 06:35:00
1:55 AM,39.2,39.2,100,30.12,10.0,North,5.8,-,N/A,,Overcast,350,2013-01-15 06:55:00
2:15 AM,39.2,39.2,100,30.11,10.0,NNW,3.5,-,N/A,Rain,Rain,330,2013-01-15 07:15:00
2:35 AM,39.2,39.2,100,30.11,10.0,NNW,5.8,-,N/A,Rain,Rain,330,2013-01-15 07:35:00
3:15 AM,41.0,41.0,100,30.12,7.0,NNW,6.9,-,N/A,Rain,Light Rain,330,2013-01-15 08:15:00
3:35 AM,41.0,41.0,100,30.11,5.0,North,3.5,-,N/A,Rain,Light Rain,350,2013-01-15 08:35:00
3:55 AM,39.2,39.2,100,30.12,1.5,NW,3.5,-,0.02,,Unknown,320,2013-01-15 08:55:00
4:15 AM,39.2,39.2,100,30.11,2.5,Calm,Calm,-,N/A,,Unknown,0,2013-01-15 09:15:00
4:35 AM,39.2,39.2,100,30.10,2.5,Calm,Calm,-,N/A,,Unknown,0,2013-01-15 09:35:00
4:55 AM,41.0,41.0,100,30.10,7.0,NNW,6.9,-,0.01,Rain,Light Rain,330,2013-01-15 09:55:00
5:15 AM,39.2,39.2,100,30.09,7.0,NW,3.5,-,N/A,,Heavy Drizzle,320,2013-01-15 10:15:00
5:55 AM,39.2,39.2,100,30.11,5.0,NNW,6.9,-,N/A,Rain,Rain,340,2013-01-15 10:55:00
6:15 AM,39.2,39.2,100,30.11,5.0,North,5.8,-,0.01,Rain,Rain,360,2013-01-15 11:15:00
6:35 AM,41.0,41.0,100,30.12,7.0,North,5.8,-,0.01,Rain,Rain,360,2013-01-15 11:35:00
6:55 AM,41.0,41.0,100,30.12,10.0,North,4.6,-,0.01,Rain,Light Rain,350,2013-01-15 11:55:00
7:15 AM,41.0,41.0,100,30.11,7.0,NNW,5.8,-,N/A,Rain,Light Rain,340,2013-01-15 12:15:00
7:35 AM,41.0,41.0,100,30.12,7.0,NNW,6.9,-,N/A,,Drizzle,340,2013-01-15 12:35:00
7:55 AM,41.0,41.0,100,30.13,7.0,NNW,6.9,-,N/A,,Heavy Drizzle,330,2013-01-15 12:55:00
8:15 AM,41.0,41.0,100,30.14,7.0,NNW,9.2,-,N/A,,Drizzle,340,2013-01-15 13:15:00
8:35 AM,41.0,41.0,100,30.14,5.0,NNW,8.1,-,N/A,Rain,Heavy Rain,340,2013-01-15 13:35:00
8:55 AM,41.0,41.0,100,30.14,5.0,NNW,9.2,-,N/A,,Drizzle,340,2013-01-15 13:55:00
9:15 AM,41.0,41.0,100,30.14,4.0,North,6.9,-,N/A,,Drizzle,350,2013-01-15 14:15:00
9:35 AM,41.0,41.0,100,30.14,5.0,North,9.2,-,N/A,Rain,Rain,350,2013-01-15 14:35:00
9:55 AM,41.0,41.0,100,30.13,7.0,NNW,6.9,-,N/A,Rain,Rain,340,2013-01-15 14:55:00
10:15 AM,41.0,41.0,100,30.14,10.0,NNW,9.2,-,N/A,,Drizzle,340,2013-01-15 15:15:00
10:35 AM,41.0,41.0,100,30.12,10.0,NNW,8.1,-,N/A,,Light Drizzle,340,2013-01-15 15:35:00
10:55 AM,42.8,42.8,100,30.11,10.0,North,5.8,-,N/A,,Drizzle,360,2013-01-15 15:55:00
11:15 AM,42.8,42.8,100,30.10,7.0,NNW,6.9,-,N/A,,Light Drizzle,340,2013-01-15 16:15:00
11:35 AM,42.8,42.8,100,30.10,10.0,NNW,6.9,-,N/A,,Overcast,340,2013-01-15 16:35:00
11:55 AM,42.8,42.8,100,30.08,4.0,NNW,8.1,-,N/A,,Overcast,340,2013-01-15 16:55:00
12:15 PM,42.8,42.8,100,30.07,3.0,NNW,6.9,-,N/A,,Drizzle,340,2013-01-15 17:15:00
12:35 PM,42.8,42.8,100,30.06,3.0,North,5.8,-,N/A,Rain,Rain,360,2013-01-15 17:35:00
12:55 PM,42.8,42.8,100,30.06,2.5,NNW,4.6,-,N/A,Rain,Rain,340,2013-01-15 17:55:00
1:15 PM,42.8,42.8,100,30.04,2.0,North,6.9,-,N/A,,Heavy Drizzle,350,2013-01-15 18:15:00
1:35 PM,42.8,42.8,100,30.04,5.0,North,3.5,-,N/A,Rain,Light Rain,350,2013-01-15 18:35:00
1:55 PM,42.8,42.8,100,30.03,5.0,North,4.6,-,N/A,Rain,Heavy Rain,350,2013-01-15 18:55:00
2:15 PM,42.8,42.8,100,30.02,4.0,Calm,Calm,-,N/A,Rain,Rain,0,2013-01-15 19:15:00
2:35 PM,42.8,42.8,100,30.01,5.0,North,3.5,-,N/A,Rain,Heavy Rain,10,2013-01-15 19:35:00
2:55 PM,42.8,42.8,100,30.01,4.0,Calm,Calm,-,N/A,,Heavy Drizzle,0,2013-01-15 19:55:00
3:15 PM,42.8,42.8,100,30.02,2.5,NW,5.8,-,0.01,,Heavy Drizzle,310,2013-01-15 20:15:00
3:35 PM,42.8,42.8,100,30.03,1.2,NNW,5.8,-,0.01,,Unknown,330,2013-01-15 20:35:00
3:55 PM,42.8,42.8,100,30.03,5.0,NNE,4.6,-,0.02,Rain,Light Rain,20,2013-01-15 20:55:00
4:15 PM,42.8,42.8,100,30.03,3.0,Calm,Calm,-,N/A,Rain,Rain,0,2013-01-15 21:15:00
4:35 PM,42.8,42.8,100,30.04,3.0,NNW,4.6,-,N/A,Rain,Rain,340,2013-01-15 21:35:00
4:55 PM,42.8,42.8,100,30.03,3.0,Calm,Calm,-,N/A,,Heavy Drizzle,0,2013-01-15 21:55:00
5:15 PM,42.8,42.8,100,30.03,4.0,Calm,Calm,-,N/A,,Drizzle,0,2013-01-15 22:15:00
5:35 PM,42.8,42.8,100,30.02,7.0,Calm,Calm,-,N/A,Rain,Light Rain,0,2013-01-15 22:35:00
5:55 PM,42.8,42.8,100,30.03,10.0,Calm,Calm,-,N/A,,Drizzle,0,2013-01-15 22:55:00
6:35 PM,42.8,42.8,100,30.02,10.0,Calm,Calm,-,N/A,,Overcast,0,2013-01-15 23:35:00
6:55 PM,42.8,42.8,100,30.02,10.0,Calm,Calm,-,N/A,,Overcast,0,2013-01-15 23:55:00
7:15 PM,42.8,42.8,100,30.02,10.0,Calm,Calm,-,N/A,,Overcast,0,2013-01-16 00:15:00
7:35 PM,42.8,42.8,100,30.02,10.0,Calm,Calm,-,N/A,,Overcast,0,2013-01-16 00:35:00
7:55 PM,42.8,42.8,100,30.02,4.0,Calm,Calm,-,N/A,,Overcast,0,2013-01-16 00:55:00
8:15 PM,42.8,42.8,100,30.01,5.0,Calm,Calm,-,N/A,,Overcast,0,2013-01-16 01:15:00
8:35 PM,42.8,42.8,100,30.01,5.0,Calm,Calm,-,N/A,,Overcast,0,2013-01-16 01:35:00
8:55 PM,42.8,42.8,100,30.00,3.0,Calm,Calm,-,N/A,,Overcast,0,2013-01-16 01:55:00
9:15 PM,42.8,42.8,100,30.00,2.5,North,3.5,-,N/A,,Overcast,350,2013-01-16 02:15:00
9:35 PM,42.8,42.8,100,30.01,2.5,NNW,3.5,-,N/A,,Overcast,340,2013-01-16 02:35:00
9:55 PM,42.8,42.8,100,30.01,2.0,Calm,Calm,-,N/A,,Overcast,0,2013-01-16 02:55:00
10:15 PM,42.8,42.8,100,30.00,2.0,Calm,Calm,-,N/A,,Overcast,0,2013-01-16 03:15:00
10:35 PM,42.8,42.8,100,29.99,1.5,NNW,5.8,-,N/A,,Overcast,340,2013-01-16 03:35:00
10:55 PM,42.8,42.8,100,30.00,1.5,North,3.5,-,N/A,,Overcast,350,2013-01-16 03:55:00
11:15 PM,42.8,42.8,100,30.00,1.5,Calm,Calm,-,N/A,,Overcast,0,2013-01-16 04:15:00
11:35 PM,42.8,42.8,100,29.99,1.8,Calm,Calm,-,N/A,Rain,Rain,0,2013-01-16 04:35:00
11:55 PM,42.8,42.8,100,29.99,4.0,Calm,Calm,-,N/A,,Overcast,0,2013-01-16 04:55:00